TEMELIN Weather Reports


time (UTC)temp
C
wind
direction
speed
KPH
gust
KPH
rain 1hr
cm
rain 24hr
cm
rain mn
cm
humidity
%
barometer
mb
20260506042030 11 260 8.0 0.0 0.00 0.00 0.00 93
20260506031822 11 240 8.0 0.0 0.00 0.00 0.00 93
20260506021820 11 220 3.2 0.0 0.00 0.00 0.00 93
20260506011920 12 240 8.0 0.0 0.00 0.00 0.00 93
20260506001818 12 250 11.3 0.0 0.00 0.00 0.00 93
20260505231818 12 10 8.0 0.0 0.00 0.00 0.00 93
20260505221816 13 290 22.5 0.0 0.00 0.00 0.00 87
20260505211851 13 290 25.7 0.0 0.00 0.00 0.00 82
20260505201835 17 270 11.3 0.0 0.00 0.00 0.00 59
20260505191852 17 40 8.0 0.0 0.00 0.00 0.00 59
20260505181835 20 60 14.5 0.0 0.00 0.00 0.00 52
20260505171818 21 100 8.0 0.0 0.00 0.00 0.00 43
20260505161917 22 110 14.5 0.0 0.00 0.00 0.00 43
20260505151818 20 120 25.7 0.0 0.00 0.00 0.00 52
20260505121819 23 140 11.3 0.0 0.00 0.00 0.00 29
20260505111818 22 240 3.2 0.0 0.00 0.00 0.00 38
20260505101819 22 240 8.0 0.0 0.00 0.00 0.00 37
20260505091818 21 230 3.2 0.0 0.00 0.00 0.00 43
20260505081819 18 210 3.2 0.0 0.00 0.00 0.00 52
20260505071818 17 210 8.0 0.0 0.00 0.00 0.00 48
20260505061821 16 80 3.2 0.0 0.00 0.00 0.00 59